Weather History for Randolph AFB, TX

Change the Weather History Date:

Sunday, July 7, 2013

  Actual Average Record
Temperature  
Mean Temperature 84 °F -  
Max Temperature 96 °F 91 °F 104 °F (1998)
Min Temperature 73 °F 72 °F 46 °F (2001)
Cooling Degree Days 19    
Growing Degree Days 34 (Base 50)    
Moisture  
Dew Point 71 °F    
Average Humidity 76    
Maximum Humidity 95    
Minimum Humidity 40    
Precipitation  
Precipitation 0.07 in - - ()
Sea Level Pressure  
Sea Level Pressure 29.94 in    
Wind  
Wind Speed 7 mph (ESE)    
Max Wind Speed 31 mph    
Max Gust Speed 39 mph    
Visibility 9 miles    
Events Rain , Thunderstorm    
Averages and records for this station are not official NWS values.
T = Trace of Precipitation, MM = Missing Value Source: NWS Daily Summary

Daily Weather History Graph

Daily Weather History Graph

Search for Another Location

Airport:

Trip Planner

Search our weather history database for the weather conditions in past years. The results will help you decide how hot, cold, wet, or windy it might be!

Date:

Astronomy

Jul. 07, 2013 Rise Set
Actual Time 6:39 AM CDT 8:36 PM CDT
Civil Twilight 6:12 AM CDT 9:03 PM CDT
Nautical Twilight 5:39 AM CDT 9:36 PM CDT
Astronomical Twilight 5:04 AM CDT 10:10 PM CDT
Moon 6:12 AM CDT (7/7) 8:07 PM CDT (7/7)
Length of Visible Light 14h 51m
Length of Day
13h 57m
Waning Crescent, 0% of the Moon is Illuminated
Jul 7
Waning Crescent
Jul 8
New
Jul 15
First Quarter
Jul 22
Full
Jul 29
Last Quarter

Hourly Weather History & Observations

Time (CDT) Temp. Heat Index Dew Point Humidity Pressure Visibility Wind Dir Wind Speed Gust Speed Precip Events Conditions
12:58 AM 78.4 °F - 71.6 °F 79% 29.91 in 10.0 mi SE 8.1 mph - N/A   Clear
1:58 AM 76.1 °F - 72.1 °F 87% 29.90 in 10.0 mi SSE 2.3 mph - N/A   Clear
2:58 AM 75.0 °F - 72.3 °F 91% 29.89 in 10.0 mi ESE 2.3 mph - N/A   Clear
3:58 AM 73.6 °F - 72.0 °F 95% 29.91 in 10.0 mi ENE 4.6 mph - N/A   Clear
4:58 AM 73.6 °F - 71.8 °F 94% 29.91 in 10.0 mi East 4.6 mph - N/A   Partly Cloudy
5:58 AM 73.0 °F - 71.2 °F 94% 29.91 in 10.0 mi East 4.6 mph - N/A   Clear
6:58 AM 73.0 °F - 71.6 °F 95% 29.94 in 10.0 mi ENE 4.6 mph - N/A   Clear
7:25 AM 73.4 °F - 71.6 °F 94% 29.96 in 10.0 mi East 2.3 mph - N/A Rain Light Rain
7:43 AM 75.2 °F - 71.6 °F 89% 29.96 in 10.0 mi ESE 3.5 mph - N/A   Partly Cloudy
7:58 AM 75.4 °F - 73.0 °F 92% 29.94 in 10.0 mi East 5.8 mph - 0.00 in   Partly Cloudy
8:03 AM 75.2 °F - 73.4 °F 94% 29.96 in 10.0 mi East 5.8 mph - N/A Rain Light Rain
8:12 AM 77.0 °F - 73.4 °F 89% 29.97 in 10.0 mi East 5.8 mph - N/A   Clear
8:58 AM 78.4 °F - 73.6 °F 85% 29.96 in 10.0 mi East 6.9 mph - 0.00 in   Scattered Clouds
9:07 AM 78.8 °F - 73.4 °F 83% 29.99 in 10.0 mi East 6.9 mph - N/A   Mostly Cloudy
9:16 AM 80.6 °F 85.4 °F 73.4 °F 79% 29.98 in 10.0 mi ENE 6.9 mph - N/A   Scattered Clouds
9:34 AM 80.6 °F 85.4 °F 73.4 °F 79% 29.99 in 10.0 mi ESE 4.6 mph - N/A   Mostly Cloudy
9:43 AM 80.6 °F 85.4 °F 73.4 °F 79% 29.99 in 10.0 mi East 6.9 mph - N/A   Mostly Cloudy
9:52 AM 82.4 °F 88.2 °F 73.4 °F 74% 29.99 in 10.0 mi Variable 2.3 mph - N/A   Mostly Cloudy
9:58 AM 82.4 °F 88.2 °F 73.4 °F 74% 29.96 in 10.0 mi East 6.9 mph - N/A   Mostly Cloudy
10:07 AM 84.2 °F 90.9 °F 73.4 °F 70% 29.99 in 10.0 mi East 6.9 mph - N/A   Mostly Cloudy
10:16 AM 84.2 °F 89.6 °F 71.6 °F 66% 29.99 in 10.0 mi SE 5.8 mph - N/A   Scattered Clouds
10:58 AM 84.6 °F 90.0 °F 71.8 °F 65% 29.96 in 10.0 mi ESE 4.6 mph - N/A   Scattered Clouds
11:52 AM 86.0 °F 90.4 °F 69.8 °F 58% 29.98 in 10.0 mi Variable 4.6 mph - N/A   Mostly Cloudy
11:58 AM 87.8 °F 93.8 °F 71.6 °F 58% 29.96 in 10.0 mi Variable 6.9 mph - N/A   Scattered Clouds
12:58 PM 90.0 °F 95.4 °F 70.3 °F 52% 29.94 in 10.0 mi Variable 4.6 mph - N/A   Clear
1:58 PM 92.1 °F 96.7 °F 68.7 °F 46% 29.93 in 10.0 mi ESE 11.5 mph - N/A   Scattered Clouds
2:58 PM 94.8 °F 99.2 °F 68.0 °F 41% 29.89 in 10.0 mi Variable 5.8 mph - N/A   Partly Cloudy
3:58 PM 95.4 °F 99.7 °F 67.5 °F 40% 29.88 in 10.0 mi SE 8.1 mph - N/A   Partly Cloudy
4:24 PM 93.2 °F 98.8 °F 69.8 °F 46% 29.90 in 10.0 mi South 12.7 mph 25.3 mph N/A   Partly Cloudy
4:47 PM 93.2 °F 98.8 °F 69.8 °F 46% 29.91 in 6.0 mi ESE 31.1 mph 39.1 mph N/A   Light Drizzle
4:54 PM 82.4 °F 87.2 °F 71.6 °F 70% 29.92 in 1.0 mi SSE 11.5 mph 39.1 mph N/A Rain Rain
4:58 PM 80.6 °F 83.2 °F 68.0 °F 65% 29.90 in 1.0 mi South 15.0 mph 39.1 mph 0.05 in Rain Heavy Rain
4:59 PM 80.6 °F 83.9 °F 69.8 °F 70% 29.91 in 1.0 mi SSW 13.8 mph 35.7 mph N/A Rain , Thunderstorm Thunderstorms and Rain
5:05 PM 80.6 °F 83.2 °F 68.0 °F 65% 29.91 in 4.0 mi SW 16.1 mph 26.5 mph N/A Rain , Thunderstorm Light Thunderstorms and Rain
5:14 PM 80.6 °F 83.2 °F 68.0 °F 65% 29.90 in 10.0 mi SW 8.1 mph 23.0 mph N/A Thunderstorm Light Drizzle
5:16 PM 80.6 °F 83.2 °F 68.0 °F 65% 29.89 in 10.0 mi WSW 6.9 mph 23.0 mph N/A Thunderstorm Scattered Clouds
5:25 PM 82.4 °F 86.3 °F 69.8 °F 66% 29.89 in 10.0 mi Variable 2.3 mph - N/A Thunderstorm Thunderstorm
5:40 PM 84.2 °F 89.6 °F 71.6 °F 66% 29.92 in 10.0 mi SE 23.0 mph 29.9 mph N/A Thunderstorm Partly Cloudy
5:53 PM 77.0 °F - 71.6 °F 83% 29.92 in 10.0 mi SE 16.1 mph 32.2 mph N/A Thunderstorm Thunderstorm
5:55 PM 77.0 °F - 71.6 °F 83% 29.92 in 10.0 mi SE 23.0 mph 32.2 mph N/A Rain , Thunderstorm Light Thunderstorms and Rain
5:58 PM 77.0 °F - 69.8 °F 78% 29.91 in 10.0 mi SSE 19.6 mph 28.8 mph 0.02 in Rain , Thunderstorm Light Thunderstorms and Rain
6:02 PM 77.0 °F - 69.8 °F 78% 29.92 in 10.0 mi South 17.3 mph 28.8 mph N/A Rain , Thunderstorm Light Thunderstorms and Rain
6:06 PM 77.0 °F - 69.8 °F 78% 29.93 in 10.0 mi South 18.4 mph - N/A Thunderstorm Thunderstorm
6:08 PM 77.0 °F - 69.8 °F 78% 29.93 in 10.0 mi South 16.1 mph - N/A Thunderstorm Scattered Clouds
6:58 PM 77.5 °F - 73.4 °F 87% 29.91 in 10.0 mi SSE 5.8 mph - 0.00 in Thunderstorm Partly Cloudy
7:58 PM 78.1 °F - 73.9 °F 87% 29.92 in 10.0 mi SE 2.3 mph - N/A   Clear
8:19 PM 78.8 °F - 73.4 °F 83% 29.94 in 10.0 mi East 3.5 mph - N/A Rain Light Rain
8:30 PM 77.0 °F - 73.4 °F 89% 29.95 in 10.0 mi ENE 4.6 mph - N/A   Clear
8:58 PM 77.0 °F - 73.2 °F 88% 29.94 in 10.0 mi East 4.6 mph - 0.00 in   Clear
9:58 PM 76.6 °F - 73.2 °F 89% 29.95 in 10.0 mi ENE 4.6 mph - N/A   Clear
10:58 PM 76.6 °F - 73.8 °F 91% 29.96 in 10.0 mi East 4.6 mph - N/A   Clear
11:58 PM 76.6 °F - 74.1 °F 92% 29.97 in 10.0 mi SE 5.8 mph - N/A   Clear